EHI
0 0 0 0 0 0 0 0 0 0 0 0 0 0 0 0 0 0 0 0 0 0 0 0 0 0 0 0 0 0 0 0 0 0 0 0 0 0
0 0 0 0 0 0 0 0 0 0 0 0 0 0 0 0 0 0 0 0 0 0 0 0 0 0 0 0 0 0 0 0 0 0 0 0 0 0
0 0 0 0 0 0 0 0 0 0 0 0 0 0 0 0 0 0 0 0 0 0 0 0 0 0 0 0 0 0 0 0 0 0 0 0 0 0
0 0 0 0 0 0 0 0 0 0 0 0 0 0 0 0 0 0 0 0 0 0 0 0 0 0 0 0 0 0 0 0 0 0 0 0 0 0
0 0 0 0 0 0 0 0 0 0 0 0 0 0 0 0 0 0 0 0 0 0 0 0 0 0 0 0 0 0 0 0 0 0 0 0 0 0
0 0 0 0 0 0 0 0 0 0 0 0 0 0 0 0 0 0 0 0 0 0 0 0 0 0 0 0 0 0 0 0 0 0 0 0 0 0
0 0 0 0 0 0 0 0 0 0 0 0 0 0 0 0 0 0 0 0 0 0 0 0 0 0 0 0 0 0 0 0 0 0 0 0 0 0
0 0 0 0 0 0 0 0 0 0 0 0 0 0 0 0 0 0 0 0 0 0 0 0 0 0 0 0 0 0 0 0 0 0 0 0 0 0
0 0 0 0 0 0 0 0 0 0 0 0 0 0 0 0 0 0 0 0 0 0 0 0 0 0 0 0 0 0 0 0 0 0 0 0 0 0
0 0 0 0 0 0 0 0 0 0 0 0 0 0 0 0 0 0 0 0 0 0 0 0 0 0 0 0 0 0 0 0 0 0 0 0 0 0
0 0 0 0 0 0 0 0 0 0 0 0 0 0 0 0 0 0 0 0 0 0 0 0 0 0 0 0 0 0 0 0 0 0 0 0 0 0
0 0 0 0 0 0 0 0 0 0 0 0 0 0 0 0 0 0 0 0 0 0 0 0 0 0 0 0 0 0 0 0 0 0 0 0 0 0
0 0 0 0 0 0 0 0 0 0 0 0 0 0 0 0 0 0 0 0 0 0 0 0 0 0 0 0 0 0 0 0 0 0 0 0 0 0
0 0 0 0 0 0 0 0 0 0 0 0 0 0 0 0 0 0 0 0 0 0 0 0 0 0 0 0 0 0 0 0 0 0 0 0 0 0
0 0 0 0 0 0 0 0 0 0 0 0 0 0 0 0 0 0 0 0 0 0 0 0 0 0 0 0 0 0 0 0 0 0 0 0 0 0
0 0 0 0 0 0 0 0 0 0 0 0 0 0 0 0 0 0 0 0 0 0 0 0 0 0 0 0 0 0 0 0 0 0 0 0 0 0
0 0 0 0 0 0 0 0 0 0 0 0 0 0 0 0 0 0 0 0 0 0 0 0 0 0 0 0 0 0 0 0 0 0 0 0 0 0
0 0 0 0 0 0 0 0 0 0 0 0 0 0 0 0 0 0 0 0 0 0 0 0 0 0 0 0 0 0 0 0 0 0 0 0 0 0
0 0 0 0 0 0 0 0 0 0 0 0 0 0 0 0 0 0 0 0 0 0 0 0 0 0 0 0 0 0 0 0 0 0 0 0 0 0
0 0 0 0 0 0 0 0 0 0 0 0 0 0 0 0 0 0 0 0 0 0 0 0 0 0 0 0 0 0 0 0 0 0 0 0 0 0
0 0 0 0 0 0 0 0 0 0 0 0 0 0 0 0 0 0 0 0 0 0 0 0 0 0 0 0 0 0 0 0 0 0 0 0 0 0
0 0 0 0 0 0 0 0 0 0 0 0 0 0 0 0 0 0 0 0 0 0 0 0 0 0 0 0 0 0 0 0 0 0 0 0 0 0
0 0 0 0 0 0 0 0 0 0 0 0 0 0 0 0 0 0 0 0 0 0 0 0 0 0 0 0 0 0 0 0 0 0 0 0 0 0
Wind_Speed
8 8 6 5 5 4 4 5 5 5 7 5 3 3 4 3 5 3 3 5 5 5 4 3 2 2 3 3 2 2 3 3 4 5 6 6 6 6
6 8 8 5 5 5 5 4 4 5 5 3 3 2 4 3 6 4 4 5 6 6 5 4 3 3 4 3 3 3 3 3 4 4 5 6 5 5
7 9 9 7 6 6 5 5 4 4 4 2 1 2 4 5 4 3 3 3 3 6 6 5 5 5 4 4 3 2 2 3 3 3 4 5 5 4
9 9 9 7 8 6 6 7 6 4 4 4 2 3 3 5 5 4 3 3 2 5 6 6 6 5 5 4 3 2 3 3 3 3 4 5 6 5
9 10 9 8 9 6 7 7 5 4 3 4 4 2 2 3 4 3 2 2 2 3 6 6 6 5 5 4 3 3 3 3 3 3 4 5 5 6
8 8 9 10 10 8 7 8 6 5 4 5 4 3 2 3 4 4 3 2 2 1 3 4 5 5 4 4 3 2 2 2 3 3 4 5 5 5
7 7 8 9 10 9 7 7 7 6 5 4 4 4 4 5 6 4 4 2 1 2 2 2 2 2 2 2 2 2 2 2 2 3 3 4 5 5
7 6 6 7 9 10 10 10 11 10 9 6 5 6 7 6 5 5 4 4 3 3 3 2 2 2 2 1 2 3 2 2 2 3 3 4 5 5
6 5 4 5 7 6 7 8 10 12 12 9 8 8 8 8 9 7 6 5 4 4 4 2 2 2 1 2 3 3 3 3 3 3 4 4 5 6
5 5 6 6 6 6 6 5 4 5 7 6 7 7 6 7 9 8 6 5 4 2 3 3 2 2 1 1 1 3 3 3 4 4 4 5 5 6
3 4 5 5 7 7 6 5 3 1 2 5 6 6 9 11 10 7 7 6 3 2 2 3 2 2 1 1 0 1 2 3 4 5 5 5 5 6
2 2 4 5 6 8 6 7 6 4 4 5 6 6 6 9 10 7 7 6 4 3 3 4 3 3 2 0 1 1 1 1 2 3 4 5 5 4
1 1 2 4 6 7 6 5 7 6 5 6 5 5 4 4 4 4 4 5 4 3 5 5 3 3 3 1 0 1 1 1 1 1 2 3 5 5
2 1 2 4 5 5 5 5 8 8 5 5 5 4 4 4 4 5 5 5 4 4 6 5 4 4 4 3 1 1 1 1 1 1 1 1 2 4
1 2 1 3 3 4 5 7 7 5 5 5 5 3 3 5 5 5 6 6 6 5 4 3 4 4 3 3 3 2 1 0 1 1 1 1 1 1
1 0 1 2 2 3 5 5 3 4 5 5 4 4 4 4 4 4 4 4 4 3 3 3 3 4 3 3 3 3 2 2 1 1 1 1 1 1
1 1 1 1 1 1 2 2 3 3 3 4 4 5 5 4 4 3 3 3 3 4 3 2 3 3 3 3 3 3 3 2 2 2 2 1 2 2
2 2 1 1 2 2 2 2 2 3 3 4 4 5 5 5 5 4 3 3 4 4 3 3 3 3 2 1 3 3 2 2 2 3 2 2 2 2
1 1 1 1 1 1 2 2 2 2 3 4 4 5 5 5 5 4 4 4 3 3 3 3 3 4 3 2 1 4 4 3 3 2 2 3 2 2
0 0 1 1 1 1 1 1 2 2 3 4 4 4 5 5 5 5 5 5 4 4 3 3 3 4 4 4 2 1 5 4 3 3 2 1 1 2
1 1 1 1 1 1 1 1 2 3 4 4 4 4 5 5 5 5 5 7 5 4 4 4 4 6 3 3 2 1 1 5 5 4 3 2 1 1
1 1 1 1 1 1 1 1 1 2 3 4 4 4 4 4 5 6 6 5 4 4 4 3 4 4 3 3 3 2 1 1 3 5 6 5 4 4
2 1 1 1 1 1 2 2 2 2 3 3 3 4 4 4 4 5 5 5 5 5 5 4 4 3 3 3 3 3 3 2 1 1 2 6 9 9
Wind_Direction
211 211 214 207 200 199 189 184 185 216 230 213 200 192 186 180 183 179 188 188 177 169 150 130 109 102 108 96 73 43 30 17 2 3 4 358 355 359
210 213 218 214 204 201 198 201 200 205 226 203 194 179 183 180 181 177 188 182 178 172 161 149 135 127 112 96 71 47 34 24 11 15 13 8 11 20
213 216 220 213 209 206 201 198 202 196 213 220 175 162 174 177 176 175 180 174 186 184 175 167 155 143 134 115 94 66 43 37 27 21 16 17 17 26
215 219 222 214 214 208 202 204 204 195 191 205 200 181 188 181 173 175 184 179 183 190 179 169 160 152 139 123 115 93 66 46 34 29 24 24 25 35
215 216 216 209 216 215 210 206 201 194 186 185 190 183 169 164 163 168 179 180 179 181 174 170 165 160 151 142 123 95 72 59 50 41 36 32 32 41
215 214 213 210 210 208 212 207 196 190 183 176 178 175 163 158 162 172 186 187 177 152 159 158 160 154 155 152 131 108 85 78 75 65 53 42 41 50
214 215 215 213 211 207 209 203 193 194 186 184 184 180 178 174 189 177 181 163 168 160 151 149 146 148 151 154 137 128 110 96 86 82 72 62 55 57
217 219 216 210 211 209 209 205 198 193 192 190 194 195 193 188 174 173 160 163 192 185 158 164 151 167 167 176 177 156 141 126 115 107 99 86 72 68
217 215 218 218 205 204 204 202 206 205 197 192 193 199 191 188 176 175 176 173 177 165 149 163 156 172 177 194 189 172 159 145 137 124 110 105 96 86
220 215 214 213 208 197 187 190 203 204 202 196 194 193 189 180 180 174 160 129 96 122 141 151 161 167 147 151 195 166 165 157 152 141 126 113 104 96
227 219 211 212 206 185 172 177 179 186 169 158 158 160 163 163 158 142 145 149 153 170 156 141 147 133 119 135 143 132 154 158 155 150 140 131 121 104
228 219 213 210 200 186 178 175 180 176 149 137 130 128 138 152 160 163 161 158 148 165 169 145 143 135 127 96 86 58 78 130 147 156 155 148 134 112
248 240 222 204 196 193 190 190 183 162 153 142 134 130 126 129 133 129 138 150 151 156 158 143 139 139 137 138 103 89 99 99 93 129 151 155 152 139
259 260 220 200 197 194 190 178 163 150 142 140 140 145 145 141 127 116 108 97 93 125 144 138 139 150 139 135 158 116 83 99 108 114 98 144 152 160
315 285 242 189 179 176 173 166 157 153 151 155 160 158 140 131 120 108 97 92 80 78 101 116 132 137 134 146 153 148 142 148 134 141 144 154 163 145
8 50 173 157 135 151 157 157 156 164 160 162 152 133 122 123 124 121 122 122 109 90 73 87 121 135 136 146 154 169 171 179 168 163 157 180 191 179
89 101 106 121 138 135 128 131 140 150 152 142 139 136 138 135 130 125 124 128 132 141 135 108 94 92 110 141 161 181 175 184 188 171 161 188 226 210
113 133 153 170 174 169 163 156 156 158 156 149 149 150 152 150 142 135 131 139 142 145 146 147 135 110 86 332 204 184 178 184 178 173 169 182 228 222
104 141 173 187 187 173 166 165 167 159 151 156 157 156 153 150 145 148 150 146 147 149 154 153 151 147 155 194 213 192 172 166 159 166 182 190 211 225
44 199 210 205 188 174 170 165 157 150 154 159 159 157 157 156 155 158 163 161 157 154 154 161 172 174 178 176 173 183 185 173 167 171 175 180 232 263
311 264 219 194 191 178 169 174 174 169 165 164 167 166 164 160 162 165 167 169 161 161 173 185 193 170 132 116 123 162 200 200 188 175 163 156 183 219
289 262 233 200 194 185 174 175 178 173 169 171 172 172 170 168 169 170 170 168 171 170 170 156 140 140 146 170 178 168 170 181 209 210 208 192 175 192
299 278 240 206 193 187 182 184 188 190 183 175 175 174 174 176 176 172 172 170 165 164 157 153 153 157 167 176 176 175 177 177 174 184 232 233 231 233